Weather in Kalbajar

Azerbaijan     40°06′25″N   46°02′23″E
temp.,
°C
wind,
m/s
gust,
m/s
humid.,
%
clouds,
%
prec.,
mm/h
press.,
hPa
HPBL,
m
1 march, mon
mon101:00−8sw55590 0.0 101646
04:00−8sw447230 0.0 101753
07:00−8ssw4480100 0.0 101944
10:00−5sse2380100 0.0 1020362
13:00−4ene1292100 1.6 1021446
16:00−4e1392100 5.1 1019428
19:00−7e2397100 2.9 1022166
22:00−9ene2397100 5.1 1024150
2 march, tue
tue201:00−9ene1297100 2.3 102583
04:00−9se1196100 4.8 102538
07:00−10se019681 0.6 102723
10:00−8nne119171 0.7 1028180
13:00−5ne139285 0.4 1026465
16:00−4nnw128883 0.9 1024521
19:00−10sw339047 0.1 102527
22:00−10sw558330 0.2 102651
3 march, wed
wed301:00−10sw55833 0.0 102557
04:00−9sw55828 0.0 102380
07:00−9sw56824 0.0 102292
10:00−4wsw410795 0.1 1021986
13:00−3wsw49742 0.0 10181238
16:00−3wsw513742 0.0 10151293
19:00−8wsw57813 0.0 1017171
22:00−9sw56843 0.1 102074
4 march, thu
thu401:00−9sw458520 0.0 102154
04:00−9sw338223 0.1 102328
07:00−11sw238240 0.1 102524
10:00−6e128722 0.1 1027200
13:00−5e239151 0.3 1026494
16:00−5e339375 0.8 1024359
19:00−10se129899 0.3 102521
22:00−9sse228599 0.4 102624
5 march, fri
fri501:00−9sse1279100 0.0 102521
04:00−8ese1193100 0.3 102322
07:00−8se1297100 0.4 102139
10:00−6nnw2295100 0.6 1021154
13:00−3n22100100 0.2 1019241
16:00−3nw3497100 0.4 1018356
19:00−7w339391 0.1 101930
22:00−8w338868 0.1 102226